Temp
83 83 82 82 82 82 83 83 84 85 85 84 85 85 86 85 85 83 83 85 83 83 84 83 84 84 88 88 88 88 87 86 84 89 88 89 86 88 90 91 93 93 95
84 83 82 83 82 82 81 83 84 83 84 85 85 84 85 85 85 83 84 86 84 83 84 83 83 86 83 84 87 83 86 85 84 81 86 88 86 87 87 87 91 96 92
85 82 83 83 82 81 82 82 83 83 84 85 84 83 84 85 85 84 85 85 85 85 85 84 84 84 82 86 84 86 87 86 85 84 85 88 88 90 88 90 88 89 95
86 85 82 82 82 83 83 82 82 82 83 83 84 84 85 85 85 85 85 84 84 86 86 86 86 85 84 83 84 83 84 84 85 84 86 86 88 88 87 87 88 92 90
82 81 82 82 83 82 82 82 82 82 82 83 83 84 85 86 88 85 85 85 83 84 85 86 86 84 77 79 87 85 84 84 86 86 85 87 87 87 85 88 87 89 90
80 80 80 81 81 81 81 81 81 81 81 82 82 83 84 88 76 71 80 86 85 84 84 85 85 78 76 70 69 70 77 82 81 84 86 84 82 84 88 87 87 85 83
79 80 80 79 78 79 80 80 80 80 81 80 81 82 83 84 69 68 70 86 86 85 84 85 86 90 79 86 73 68 68 67 70 82 81 82 82 84 84 82 83 83 84
76 78 79 78 77 78 79 78 78 80 80 80 80 81 82 84 67 65 68 83 85 85 85 85 85 87 86 85 85 85 86 86 83 82 82 84 85 86 84 85 82 81 85
71 71 71 75 77 77 77 78 79 78 80 80 81 81 80 81 65 64 67 84 85 84 85 85 85 85 76 67 83 83 84 85 79 69 69 69 69 67 72 84 84 85 85
65 67 67 69 69 73 76 77 78 78 78 82 81 81 76 81 67 62 67 86 84 86 85 84 69 80 68 63 80 83 81 84 87 87 86 76 69 77 65 77 85 84 85
65 66 67 67 67 68 71 72 74 75 76 77 79 81 81 80 79 61 60 81 86 87 87 88 89 64 61 59 63 83 81 83 81 84 86 88 88 87 88 85 83 85 85
62 69 70 69 71 73 72 73 73 72 72 73 74 78 82 82 67 64 58 61 74 84 85 89 87 62 58 57 61 66 62 65 85 86 86 87 88 88 89 88 85 85 87
59 61 67 70 71 72 70 71 72 71 71 71 73 74 79 85 84 61 58 58 60 78 86 80 68 58 55 59 57 60 59 78 81 83 83 85 88 90 87 85 84 84 83
58 58 61 64 67 69 71 72 70 72 76 72 72 74 76 80 84 85 79 73 61 67 73 80 75 71 68 75 75 68 76 82 83 83 84 87 89 87 86 87 86 87 85
61 59 61 64 64 65 69 66 71 72 69 73 76 78 79 81 85 75 77 80 81 76 74 82 82 81 80 80 80 81 82 83 81 82 83 84 85 86 85 86 85 84 82
61 62 58 60 65 63 65 64 56 55 54 51 50 62 82 69 58 54 55 54 54 55 71 81 78 77 77 77 77 77 77 74 80 84 84 85 84 85 85 85 83 82 82
60 61 63 61 63 60 62 61 62 63 54 52 49 48 52 61 52 51 50 51 52 56 75 78 78 78 77 76 76 78 77 79 79 83 84 84 85 84 82 83 81 76 75
59 54 60 63 65 62 61 61 63 61 62 64 61 53 51 52 52 49 50 53 62 57 73 74 73 78 78 77 78 77 77 77 78 79 80 83 84 83 79 76 76 75 73
59 60 61 63 63 60 61 61 63 61 61 64 67 65 56 51 48 50 47 70 75 73 70 72 76 77 80 81 81 75 74 75 76 76 78 79 79 77 75 76 77 64 67
58 55 54 59 60 60 60 59 59 60 60 61 63 69 65 59 64 64 62 66 74 78 77 73 73 73 75 75 75 77 75 73 74 76 77 77 78 76 75 75 75 74 73
56 54 53 54 56 58 57 56 57 56 57 58 60 57 47 56 67 69 68 67 67 68 65 67 64 61 59 59 60 61 64 65 65 66 69 70 69 70 70 71 72 73 74
53 51 53 54 54 54 54 54 54 54 54 55 56 55 46 59 58 57 58 58 59 60 59 58 56 56 58 59 59 60 60 59 58 59 62 64 66 67 67 67 68 69 70
51 50 50 51 52 50 50 51 50 50 51 50 49 49 49 50 50 49 49 49 47 49 49 51 52 51 50 50 52 52 54 54 54 56 59 62 62 63 65 65 65 67 73
48 46 46 47 47 47 46 47 46 45 47 46 45 45 45 45 45 44 44 44 44 45 44 45 47 48 49 49 47 47 47 49 55 57 60 61 58 58 59 59 57 57 56
44 44 43 43 44 44 44 44 43 43 43 44 43 42 42 42 42 43 43 44 42 42 42 42 42 42 44 45 46 46 38 37 47 45 55 56 55 55 57 56 54 54 54
42 42 41 42 42 41 41 41 41 41 41 41 41 41 41 40 40 40 40 40 40 39 40 40 40 40 40 39 38 35 33 36 42 37 51 51 51 52 51 51 51 50 50
MSLP
1014.70 1015.26 1015.97 1016.48 1017.16 1017.66 1017.98 1018.30 1018.62 1018.79 1018.85 1019.13 1019.44 1019.75 1020.02 1020.34 1020.56 1021.08 1021.26 1021.45 1021.65 1021.91 1022.06 1022.15 1022.22 1022.38 1022.14 1022.16 1022.20 1022.13 1022.04 1022.02 1021.44 1020.92 1021.34 1021.01 1020.98 1020.68 1020.32 1020.08 1019.52 1019.13 1018.60
1013.50 1014.33 1015.16 1015.88 1016.50 1017.17 1017.36 1017.66 1018.12 1018.42 1018.54 1018.74 1019.04 1019.43 1019.78 1019.95 1020.28 1020.68 1020.89 1020.98 1021.32 1021.47 1021.63 1021.91 1021.91 1021.96 1022.13 1022.10 1021.98 1021.99 1021.80 1021.82 1021.69 1021.19 1020.99 1020.80 1020.76 1020.53 1020.34 1019.99 1019.43 1018.82 1018.68
1013.36 1014.02 1014.34 1015.03 1015.74 1016.23 1016.78 1017.21 1017.68 1017.93 1018.17 1018.42 1018.72 1018.98 1019.27 1019.66 1019.85 1020.14 1020.46 1020.66 1020.82 1020.92 1021.05 1021.32 1021.44 1021.62 1021.71 1021.58 1021.73 1021.58 1021.48 1021.57 1021.54 1021.28 1020.79 1020.56 1020.46 1020.16 1019.94 1019.40 1019.20 1018.70 1018.13
1012.74 1013.32 1013.89 1014.33 1014.66 1015.22 1015.85 1016.56 1017.06 1017.50 1017.80 1018.01 1018.32 1018.58 1018.81 1019.04 1019.39 1019.58 1019.93 1020.21 1020.33 1020.45 1020.62 1020.74 1020.83 1020.99 1021.11 1021.33 1021.45 1021.48 1021.42 1021.35 1021.08 1021.01 1020.52 1020.20 1019.97 1019.84 1019.85 1019.25 1018.61 1018.24 1017.90
1012.62 1013.02 1013.21 1013.71 1014.38 1014.92 1015.30 1015.77 1016.32 1016.77 1017.06 1017.48 1017.84 1018.09 1018.32 1018.56 1018.69 1019.03 1019.26 1019.46 1019.68 1019.84 1020.03 1020.16 1020.21 1020.06 1020.48 1020.81 1021.01 1021.04 1021.10 1021.04 1020.72 1020.44 1020.06 1019.71 1019.40 1019.20 1019.14 1018.92 1018.48 1017.99 1017.64
1012.53 1012.69 1013.04 1013.46 1013.91 1014.27 1014.74 1015.12 1015.64 1016.00 1016.40 1016.80 1017.19 1017.35 1017.62 1017.73 1017.93 1018.32 1018.52 1018.65 1018.84 1019.00 1019.19 1019.48 1019.71 1020.14 1020.55 1020.49 1020.69 1020.70 1021.03 1020.84 1020.72 1020.26 1019.65 1019.22 1019.30 1019.22 1018.82 1018.66 1018.30 1017.89 1017.30
1012.75 1012.80 1012.96 1013.16 1013.52 1013.81 1014.22 1014.53 1014.78 1015.15 1015.52 1015.96 1016.24 1016.65 1016.78 1017.01 1017.25 1017.63 1017.95 1018.06 1018.06 1018.10 1018.25 1018.56 1018.84 1019.01 1019.60 1019.92 1020.21 1020.20 1020.47 1020.47 1020.50 1020.12 1019.48 1019.03 1018.79 1018.80 1018.74 1018.53 1018.21 1017.89 1017.38
1013.17 1013.20 1013.20 1013.29 1013.38 1013.49 1013.64 1013.77 1014.10 1014.47 1014.74 1014.96 1015.32 1015.68 1015.97 1016.10 1016.45 1016.91 1017.17 1017.47 1017.41 1017.34 1017.45 1017.66 1017.89 1018.06 1018.49 1018.94 1019.21 1019.24 1019.26 1019.18 1019.16 1019.21 1018.79 1018.41 1018.15 1018.10 1018.15 1018.12 1018.13 1017.93 1017.23
1014.12 1013.90 1013.79 1013.44 1013.18 1013.26 1013.26 1013.30 1013.48 1013.75 1013.90 1014.03 1014.32 1014.66 1014.98 1015.15 1015.44 1015.84 1016.56 1016.65 1016.43 1016.48 1016.65 1016.85 1017.09 1017.28 1017.50 1017.98 1018.34 1018.25 1018.16 1017.75 1017.51 1018.02 1018.13 1017.90 1017.82 1017.86 1018.00 1017.84 1017.31 1016.87 1016.04
1015.00 1014.57 1014.17 1013.70 1013.53 1013.30 1013.03 1012.83 1013.03 1013.20 1013.12 1013.24 1013.32 1013.59 1013.85 1014.03 1014.44 1014.89 1015.48 1015.46 1015.20 1015.31 1015.50 1015.83 1016.15 1016.42 1016.81 1017.16 1017.57 1017.42 1017.24 1016.82 1016.82 1016.80 1017.32 1017.31 1017.49 1016.97 1017.52 1017.47 1016.78 1016.28 1015.81
1015.63 1014.95 1014.30 1014.12 1013.61 1013.29 1012.94 1012.67 1012.52 1012.50 1012.65 1012.58 1012.46 1012.55 1012.80 1012.98 1013.24 1013.68 1014.29 1014.54 1013.99 1013.93 1014.04 1014.18 1014.56 1015.12 1015.87 1016.24 1016.39 1016.39 1016.12 1016.33 1016.26 1016.48 1016.32 1015.93 1015.65 1015.69 1015.62 1015.78 1015.89 1015.88 1015.44
1016.42 1015.35 1014.70 1014.12 1013.53 1013.07 1012.62 1012.12 1012.03 1011.99 1011.91 1011.89 1011.94 1011.74 1011.54 1011.74 1012.09 1012.58 1013.06 1013.52 1013.23 1013.15 1012.81 1012.95 1013.31 1013.80 1014.37 1015.06 1015.50 1015.33 1015.50 1015.83 1015.75 1015.36 1015.08 1014.69 1014.50 1014.48 1014.42 1014.53 1014.82 1014.98 1014.74
1016.60 1015.89 1015.03 1014.12 1013.48 1013.12 1012.17 1012.01 1011.67 1011.54 1011.34 1011.34 1011.30 1011.12 1010.34 1010.24 1010.62 1011.26 1011.88 1012.18 1012.58 1012.87 1012.30 1012.18 1012.52 1012.96 1013.44 1014.01 1014.26 1014.57 1014.99 1015.34 1014.94 1014.44 1014.06 1013.79 1013.69 1013.68 1013.88 1014.06 1014.21 1014.27 1014.23
1016.56 1016.00 1015.32 1014.52 1013.59 1012.59 1012.31 1011.92 1011.62 1011.06 1010.60 1010.79 1010.62 1010.18 1009.98 1009.78 1009.38 1009.76 1010.62 1011.28 1011.66 1012.15 1011.87 1011.76 1012.00 1012.29 1012.68 1012.82 1013.26 1013.87 1014.16 1013.80 1013.60 1013.40 1013.18 1013.10 1013.11 1013.22 1013.25 1013.30 1013.16 1013.16 1013.17
1016.48 1015.88 1015.08 1014.32 1013.84 1012.85 1011.65 1011.67 1011.33 1010.67 1010.84 1010.55 1009.99 1009.52 1009.19 1008.50 1007.86 1008.38 1008.68 1009.32 1009.52 1009.90 1010.59 1010.98 1010.95 1011.36 1011.49 1011.63 1011.88 1012.17 1012.37 1012.63 1012.75 1012.80 1012.57 1012.35 1012.24 1012.21 1012.18 1012.45 1012.52 1012.48 1012.30
1015.98 1015.42 1015.16 1014.47 1013.73 1012.84 1012.02 1010.89 1011.02 1010.61 1010.78 1010.20 1009.54 1009.11 1007.90 1007.62 1007.68 1007.92 1008.15 1008.52 1008.82 1009.46 1010.41 1009.87 1009.87 1010.20 1010.28 1010.58 1010.78 1011.12 1011.54 1011.92 1011.84 1011.67 1011.54 1011.49 1011.42 1011.32 1011.22 1011.40 1011.69 1011.72 1011.45
1015.63 1015.16 1014.62 1014.16 1013.92 1012.89 1012.07 1010.95 1010.64 1010.16 1009.78 1008.71 1008.22 1008.04 1007.88 1007.34 1007.22 1007.41 1007.56 1008.23 1009.04 1009.28 1009.08 1008.90 1008.96 1009.10 1009.42 1009.78 1010.01 1010.12 1010.33 1010.48 1010.83 1010.72 1010.48 1010.42 1010.45 1010.57 1010.70 1010.67 1010.80 1011.24 1011.04
1015.18 1014.90 1014.38 1013.42 1012.79 1012.24 1011.84 1011.54 1009.46 1009.34 1008.84 1007.08 1007.40 1006.79 1007.19 1007.00 1006.84 1006.98 1007.77 1008.60 1009.32 1009.10 1008.36 1008.20 1008.20 1008.30 1008.48 1008.80 1009.02 1009.19 1009.41 1009.64 1009.77 1009.82 1009.94 1009.76 1009.61 1009.73 1009.99 1010.19 1010.27 1010.26 1010.32
1014.53 1014.08 1013.60 1013.03 1012.48 1012.16 1011.77 1011.16 1009.61 1009.75 1009.59 1008.67 1007.81 1008.40 1006.79 1006.52 1006.58 1007.02 1007.27 1007.22 1007.34 1007.44 1007.36 1007.43 1007.44 1007.31 1007.30 1007.56 1007.73 1008.12 1008.50 1008.90 1009.08 1009.11 1009.18 1009.21 1009.27 1009.38 1009.40 1009.54 1009.56 1009.68 1009.81
1013.99 1013.76 1013.64 1012.74 1011.75 1011.27 1010.97 1010.38 1009.68 1009.31 1009.50 1010.08 1009.76 1007.90 1006.80 1005.84 1006.09 1006.33 1006.46 1006.45 1006.17 1005.91 1006.02 1006.26 1006.56 1006.56 1006.68 1007.05 1007.20 1007.40 1007.88 1008.24 1008.51 1008.47 1008.53 1008.57 1008.57 1008.71 1008.97 1009.07 1008.98 1008.97 1009.22
1013.54 1013.22 1013.02 1012.68 1011.77 1011.00 1010.37 1010.12 1010.15 1008.47 1009.33 1009.22 1008.92 1008.36 1007.99 1006.48 1005.66 1005.93 1005.87 1005.98 1005.85 1005.78 1005.75 1005.72 1005.99 1006.73 1007.07 1007.66 1008.14 1008.27 1008.44 1008.57 1008.80 1008.84 1008.78 1008.72 1008.80 1008.70 1008.82 1008.90 1009.02 1008.81 1008.62
1013.14 1013.09 1012.71 1012.29 1011.63 1011.15 1010.77 1010.46 1009.84 1009.43 1009.84 1009.59 1009.42 1009.14 1008.85 1007.62 1006.98 1006.22 1006.80 1007.43 1006.94 1006.75 1007.18 1007.03 1007.16 1007.55 1007.57 1008.02 1008.01 1008.36 1008.71 1009.10 1009.59 1009.53 1009.22 1009.34 1009.31 1009.33 1009.24 1009.47 1009.37 1009.16 1009.16
1012.72 1012.47 1012.15 1011.89 1011.62 1011.42 1010.86 1010.56 1010.05 1010.17 1010.12 1009.96 1009.76 1009.59 1008.75 1008.48 1007.95 1007.12 1007.12 1008.24 1008.18 1008.28 1008.39 1008.13 1008.36 1008.44 1008.89 1009.67 1008.78 1008.84 1008.64 1008.56 1009.27 1008.99 1008.94 1009.07 1009.30 1009.43 1009.36 1009.75 1009.81 1009.83 1009.54
1012.56 1012.31 1012.00 1011.60 1011.47 1011.39 1011.22 1010.69 1010.40 1010.69 1009.98 1010.46 1009.94 1010.18 1009.58 1009.23 1009.12 1008.90 1009.06 1009.18 1009.20 1009.24 1009.40 1009.54 1009.24 1009.60 1009.86 1010.03 1010.66 1010.12 1009.77 1008.93 1009.68 1010.02 1008.70 1008.56 1009.48 1009.21 1009.52 1010.30 1010.40 1010.37 1010.41
1012.67 1012.34 1012.05 1011.52 1011.14 1010.94 1011.12 1011.08 1010.78 1010.51 1010.72 1010.54 1010.32 1010.38 1010.26 1009.98 1010.20 1009.92 1010.27 1009.82 1009.67 1010.09 1010.44 1010.73 1010.34 1010.91 1011.18 1010.92 1011.11 1010.97 1010.91 1010.42 1009.74 1009.55 1009.78 1010.11 1010.32 1010.40 1011.01 1011.19 1011.04 1010.90 1010.66
1012.86 1012.46 1012.11 1011.95 1011.66 1011.24 1011.04 1010.61 1011.26 1011.81 1011.58 1011.81 1011.51 1011.20 1011.05 1010.74 1011.04 1011.02 1011.39 1011.09 1010.75 1011.22 1011.31 1011.62 1011.60 1011.71 1011.91 1011.92 1011.93 1011.63 1011.22 1010.74 1010.46 1011.20 1011.10 1010.51 1010.85 1011.37 1011.76 1011.96 1012.04 1011.91 1011.98
Wind_Speed
18 16 14 15 15 14 13 13 11 10 9 9 9 9 9 9 9 8 8 7 7 6 5 6 6 5 5 4 4 3 4 4 6 5 3 4 5 7 9 9 9 8 7
17 16 17 15 14 15 14 15 13 12 10 10 9 10 10 10 10 10 10 8 9 9 8 7 7 5 6 5 5 5 5 4 6 7 5 6 6 8 9 10 9 8 8
16 14 16 17 16 16 15 14 13 13 13 11 10 10 11 11 11 12 11 11 10 10 9 9 8 8 8 6 6 5 5 5 6 6 7 6 7 7 9 8 8 8 8
16 16 16 16 16 17 15 14 14 13 13 13 13 12 11 11 12 12 12 12 12 11 11 10 10 10 9 8 7 7 6 6 6 7 7 8 7 7 6 8 8 9 9
15 15 16 14 14 14 13 14 14 14 13 13 13 13 13 11 10 13 13 13 12 13 13 12 11 11 10 9 7 7 7 7 7 8 8 8 8 7 8 8 9 9 8
15 16 14 14 14 14 14 14 14 14 14 13 14 14 14 12 12 14 13 12 13 12 12 13 12 10 12 12 12 12 10 9 10 9 9 9 9 9 7 8 9 9 8
12 13 14 13 14 14 14 14 14 15 14 15 15 15 15 15 13 16 17 12 12 12 13 12 12 10 11 11 11 13 12 13 15 11 12 12 11 10 10 10 9 9 10
6 9 11 12 12 13 14 15 14 13 14 13 14 15 15 14 14 17 18 16 13 14 13 14 14 13 13 12 11 11 11 12 12 10 13 13 12 11 10 9 9 9 9
4 1 5 7 12 13 15 15 14 12 13 14 14 15 16 16 15 18 16 16 16 16 15 15 15 15 13 14 13 13 13 13 10 14 15 13 13 11 10 8 9 9 10
7 6 5 3 3 7 12 14 13 12 13 13 15 15 16 17 14 17 18 14 15 14 15 15 15 18 12 15 14 13 14 14 12 11 10 12 14 14 12 12 9 10 9
10 8 6 6 5 6 8 5 10 11 12 12 15 14 16 16 16 18 19 16 14 14 14 13 14 20 19 15 19 14 15 12 12 10 11 11 10 10 9 9 10 9 9
13 13 9 6 5 5 7 8 7 10 11 12 13 14 14 15 16 16 19 24 18 15 15 13 13 14 18 19 15 17 12 11 11 11 11 12 11 10 9 9 9 10 10
10 13 14 11 7 6 4 8 7 8 8 10 10 11 12 12 13 19 19 22 23 15 14 14 12 12 15 13 17 14 12 10 11 12 12 12 11 9 8 8 9 11 12
11 11 12 11 10 5 5 5 6 7 9 8 9 11 10 12 13 13 13 13 18 16 19 14 13 12 13 12 10 10 11 11 11 11 11 11 10 9 9 9 9 8 9
11 10 10 10 11 9 4 5 7 8 8 8 11 11 12 14 14 13 13 12 14 15 12 13 13 13 13 12 10 11 10 10 11 11 12 11 11 10 10 9 9 9 11
10 8 6 8 11 8 9 4 9 14 19 18 19 16 14 18 8 14 17 16 13 9 9 13 12 13 12 11 10 9 9 10 12 12 12 12 12 12 11 10 9 10 11
10 10 9 8 9 8 8 4 6 9 17 16 15 16 20 18 11 15 15 15 11 13 10 11 12 11 10 9 8 8 9 10 11 12 12 12 11 11 10 10 9 9 9
10 11 10 9 10 9 8 10 4 7 12 13 12 9 17 22 20 15 9 11 4 6 9 9 9 10 10 10 10 9 9 8 9 9 10 11 11 10 9 9 10 10 9
10 9 10 10 10 9 10 10 4 5 8 10 11 16 12 17 12 11 14 9 11 11 11 10 10 9 11 11 11 8 8 7 8 8 8 10 10 9 10 10 10 10 9
10 13 12 11 10 10 9 8 7 4 6 9 10 11 6 1 4 6 8 9 11 11 9 10 10 7 6 4 5 8 7 8 9 9 8 7 7 7 8 8 8 8 7
8 9 13 11 10 10 9 7 8 5 7 8 9 5 18 7 4 4 3 5 6 3 1 1 4 4 5 5 3 3 3 4 5 5 4 3 3 2 2 2 4 5 4
7 8 10 10 9 8 8 8 8 6 8 7 6 6 14 3 1 5 6 4 4 5 3 3 4 3 3 2 5 5 4 3 3 3 3 3 3 3 3 3 4 4 5
7 9 9 9 8 7 7 6 5 5 6 5 5 5 4 5 3 5 8 5 6 6 6 6 5 5 6 6 5 4 3 6 3 5 4 3 4 3 4 4 5 7 8
7 8 8 8 6 4 4 4 3 5 3 3 3 3 3 4 5 7 6 6 7 7 8 7 8 8 6 7 5 5 5 5 1 2 5 7 5 5 6 4 4 6 5
5 5 5 4 4 2 2 2 2 3 3 3 4 4 5 6 6 7 6 6 8 8 9 7 8 11 12 14 11 11 9 12 9 9 7 10 11 11 8 4 5 5 6
5 3 3 1 1 2 3 5 5 3 4 4 4 6 6 7 7 8 7 9 9 9 10 8 11 14 13 10 11 12 11 13 13 10 6 8 8 8 7 8 9 6 7
Wind_Direction
207 207 207 206 212 210 214 216 220 219 207 206 204 208 210 203 205 206 215 211 221 219 219 229 237 228 241 233 230 230 239 247 280 308 288 317 300 313 328 328 322 317 330
205 201 207 208 204 214 214 215 215 221 215 212 203 205 213 212 205 215 220 217 217 216 217 220 232 225 230 233 237 247 254 244 274 282 319 302 298 318 311 314 323 327 332
211 209 209 208 208 211 218 215 215 216 218 216 212 206 205 212 208 211 221 224 228 230 225 220 226 220 230 239 238 245 242 244 236 269 293 294 302 304 313 306 316 314 306
214 213 212 212 208 212 213 213 211 216 223 219 218 218 213 210 213 213 213 222 228 234 234 231 229 225 230 229 233 241 248 255 252 264 280 289 291 308 297 303 316 322 326
210 211 214 211 218 218 213 213 215 212 218 224 224 227 225 219 214 213 210 216 222 230 233 234 232 232 226 235 246 241 248 243 258 268 275 279 281 299 309 315 300 320 313
213 216 214 213 216 217 217 219 217 220 219 219 227 226 227 228 211 205 215 214 217 222 225 228 238 222 231 224 224 240 257 251 256 270 276 280 284 284 292 295 308 318 316
226 224 221 220 222 223 220 220 219 220 222 221 223 227 229 230 207 201 207 226 225 222 221 223 227 228 222 240 223 227 238 235 239 256 264 265 278 278 284 288 293 302 298
263 252 247 238 231 228 226 223 221 223 224 223 227 227 230 231 206 203 203 221 230 234 229 226 228 232 223 222 233 246 249 249 235 233 241 256 258 264 266 277 295 289 278
25 337 350 289 239 237 233 233 229 224 225 225 228 228 227 234 211 202 197 226 234 233 234 233 232 235 226 202 233 248 255 258 239 227 248 253 251 255 258 283 269 278 291
347 335 325 305 300 266 248 237 237 230 231 234 234 230 229 234 214 209 198 228 234 236 234 233 218 237 210 194 220 244 252 257 260 263 239 244 244 253 224 232 257 267 285
323 312 304 300 273 256 257 261 245 234 230 232 235 234 232 229 233 206 199 222 230 230 236 238 235 205 220 206 208 234 239 254 258 251 258 257 254 252 249 221 236 251 265
318 312 301 286 283 282 275 257 256 236 231 228 233 238 235 232 223 218 203 212 224 233 237 236 240 202 202 208 210 233 230 227 253 257 255 256 256 252 251 245 244 241 246
311 303 304 302 286 286 297 294 270 246 238 238 230 234 242 234 229 212 207 209 221 232 239 237 236 200 199 210 220 225 219 232 243 245 247 252 256 261 266 254 245 246 245
301 297 297 295 292 279 285 280 274 272 246 244 236 235 237 238 234 225 214 216 221 217 239 238 237 232 222 234 224 212 231 234 236 242 248 252 259 258 250 250 253 246 244
292 297 299 300 295 293 269 274 289 275 266 278 254 242 238 239 233 222 215 208 213 212 217 231 235 230 235 231 231 234 232 227 231 239 248 248 249 251 249 249 248 248 245
290 282 279 296 301 297 289 302 257 255 262 268 262 251 245 240 260 198 208 219 220 189 198 227 223 228 228 229 226 217 219 226 242 245 244 244 248 250 251 245 238 243 248
285 291 293 290 279 284 295 291 302 283 241 253 266 256 242 249 237 221 220 217 208 168 217 222 230 224 221 222 227 225 225 228 228 241 241 240 242 245 242 246 238 232 240
290 275 277 285 288 293 290 289 310 319 312 322 307 283 250 238 234 227 216 145 163 245 219 223 214 219 219 217 218 216 220 222 234 233 241 241 236 237 236 233 235 235 235
294 289 294 287 284 282 280 282 302 299 295 304 320 274 244 238 241 219 172 217 221 213 211 218 221 209 221 225 220 205 206 219 218 225 235 238 237 233 234 239 244 232 227
291 286 280 287 290 292 294 294 300 300 297 281 274 292 324 201 191 208 207 214 229 231 212 203 211 212 223 235 225 217 210 213 226 233 236 241 238 232 238 236 235 240 229
291 291 289 283 278 285 294 292 288 325 299 288 291 325 297 285 295 263 231 219 234 237 14 124 139 150 132 120 82 48 29 27 18 7 351 348 339 305 348 286 262 268 264
276 276 281 274 269 272 277 294 301 303 287 290 303 302 313 300 167 107 69 23 51 55 49 77 71 104 108 189 168 160 149 119 62 25 37 24 18 4 358 346 337 334 304
274 275 271 266 261 264 274 277 294 294 282 295 310 316 354 351 14 59 83 60 43 47 35 58 50 47 49 7 40 7 148 125 154 163 131 108 86 45 35 7 5 343 314
286 272 267 264 256 242 240 271 298 293 330 305 3 352 23 48 43 62 75 85 78 68 66 56 72 74 75 74 39 46 28 72 117 353 120 122 120 101 99 89 67 51 37
301 285 264 261 264 265 161 120 82 21 20 11 54 53 53 63 54 60 65 79 76 73 69 68 71 67 60 70 68 70 47 51 69 67 55 63 59 58 49 45 63 82 81
347 359 348 303 190 99 78 74 80 87 90 82 80 80 74 73 64 65 63 65 72 69 67 58 63 67 58 55 55 50 45 53 64 26 64 79 83 77 72 69 57 59 45